Content
SEND FEEDBACK

Daily
Averages
Monthly
Summary
United States of America

CHESTERFIELD, MISSOURI


Home > North America > United States > Missouri
Elevation: 170 meters     Latitude: 38 41N     Longitude: 090 31W

WEATHER
 
SELECT A DAY
Number of Records: 203,690;   Date Range: 1/1/95 - 9/20/14
 
SHARE

PRINT THIS DATA

[ ← Previous Day ]
WEATHER ALMANAC - 18 JANUARY, 2013
[ Next Day → ]
[ °F ]   °C
Weather ElementAverageHighLow
Temperature5.1 °C12.8 °C (2:51 pm)-4.4 °C (2:51 am)
Dewpoint-5.9 °C-3.3 °C (10:51 pm)-7.8 °C (2:51 am)
Humidity48.3 %78 % (3:51 am)27 % (2:51 pm)
Barometer1027.4 hPa1033.9 hPa (1:51 am)1021.3 hPa (9:51 pm)
Wind Speed15.4 km/h29.6 km/h (2:51 pm)
Wind Gust37 km/h (2:51 pm)
Weather ElementAverage
Visibility16.1 km
Wind DirectionSSE (166.5 °)

Weather ElementTotal
Precipitation---
Heating Degree Days14.2 (Base 18.3)
Averaged from 23 records on 18 January, 2013
WEATHER CONDITIONS BREAKOUT
WIND DIRECTION BREAKOUT
WEATHER BY HOUR - 18 JANUARY, 2013
[ °F ]   °C
Local TimeTemperatureDewpointHumidityBarometerVisibilityWind DirectionWind SpeedGust SpeedPrecipitationEventsConditions
1:51 AM-3.3 °C-7.2 °C75 %1033.9 hPa16.1 kmCalmClear
2:51 AM-4.4 °C-7.8 °C77 %1033.9 hPa16.1 kmCalmClear
3:51 AM-3.9 °C-7.2 °C78 %1033.5 hPa16.1 kmCalmClear
4:51 AM-2.8 °C-7.8 °C69 %1033.2 hPa16.1 kmSSW (210°)11.1 km/hClear
5:51 AM-1.1 °C-7.8 °C61 %1032.8 hPa16.1 kmSouth (190°)7.4 km/hClear
6:51 AM-1.1 °C-7.8 °C61 %1032.8 hPa16.1 kmSouth (190°)7.4 km/hClear
7:51 AM-1 °C-7 °C64 %1031.5 hPa16.1 kmSSW (200°)13 km/hClear
8:51 AM1.7 °C-6.7 °C54 %1032.2 hPa16.1 kmSouth (190°)9.3 km/hClear
9:51 AM3.9 °C-6.1 °C49 %1031.8 hPa16.1 kmSouth (190°)24.1 km/hClear
10:51 AM6.7 °C-5.6 °C42 %1030.5 hPa16.1 kmSouth (190°)16.7 km/hPartly Cloudy
11:51 AM8.3 °C-5 °C39 %1028.8 hPa16.1 kmSSW (210°)24.1 km/hPartly Cloudy
12:51 PM10 °C-5 °C35 %1026.8 hPa16.1 kmSouth (190°)18.5 km/hPartly Cloudy
1:51 PM11.7 °C-5.6 °C30 %1025.4 hPa16.1 kmSouth (190°)22.2 km/hPartly Cloudy
2:51 PM12.8 °C-6.1 °C27 %1024 hPa16.1 kmSSW (200°)29.6 km/h37 km/hPartly Cloudy
3:51 PM12.8 °C-6.1 °C27 %1023.4 hPa16.1 kmSouth (180°)22.2 km/hPartly Cloudy
4:51 PM11.7 °C-5.6 °C30 %1023 hPa16.1 kmSouth (170°)20.4 km/hPartly Cloudy
5:51 PM10.6 °C-6.1 °C31 %1022.7 hPa16.1 kmSouth (180°)20.4 km/h35.2 km/hPartly Cloudy
6:51 PM10 °C-6.1 °C32 %1022.7 hPa16.1 kmSouth (180°)22.2 km/hClear
7:51 PM8.3 °C-5.6 °C37 %1022.4 hPa16.1 kmSouth (170°)14.8 km/hClear
8:51 PM7.8 °C-4.4 °C42 %1021.7 hPa16.1 kmSouth (180°)16.7 km/hClear
9:51 PM7.2 °C-3.9 °C46 %1021.3 hPa16.1 kmSSW (200°)22.2 km/hClear
10:51 PM6.1 °C-3.3 °C51 %1021.3 hPa16.1 kmSSW (210°)18.5 km/hClear
11:51 PM5.6 °C-3.3 °C53 %1021.3 hPa16.1 kmSSW (210°)14.8 km/hClear
Hourly data recorded from KSTL, located 0 kilometers away from Chesterfield, Missouri







STORIES FROM OUR PARTNERS